MST,Max TemperatureF,Mean TemperatureF,Min TemperatureF,Max Dew PointF,MeanDew PointF,Min DewpointF,Max Humidity, Mean Humidity, Min Humidity, Max Sea Level PressureIn, Mean Sea Level PressureIn, Min Sea Level PressureIn, Max VisibilityMiles, Mean VisibilityMiles, Min VisibilityMiles, Max Wind SpeedMPH, Mean Wind SpeedMPH, Max Gust SpeedMPH,PrecipitationIn, CloudCover, Events, WindDirDegrees
2013-11-1,52,43,33,26,23,16,70,52,33,30.26,30.09,29.86,10,10,10,20,9,25,0.00,3,,315
2013-11-2,59,42,24,29,23,16,81,50,19,30.30,30.13,29.84,10,10,10,15,6,21,0.00,1,,105
2013-11-3,68,52,36,27,16,5,55,32,8,29.79,29.61,29.47,10,10,10,30,12,38,0.00,3,,113
2013-11-4,43,35,27,27,23,15,92,63,34,30.09,29.97,29.71,10,10,6,23,11,30,T,5,,145
2013-11-5,41,29,16,29,20,5,81,57,33,30.31,30.04,29.87,10,9,2,35,11,43,0.01,6,Snow,11
2013-11-6,57,36,14,13,9,5,67,41,15,30.43,30.34,30.25,10,10,10,28,8,37,0.00,1,,358
2013-11-7,53,38,22,17,15,11,62,43,24,30.53,30.34,30.10,10,10,10,15,6,16,0.00,2,,86
2013-11-8,70,51,32,18,13,6,51,30,8,30.06,29.90,29.75,10,10,10,26,9,36,0.00,4,,37
2013-11-9,58,45,32,24,22,17,59,42,24,30.28,30.15,29.99,10,10,10,16,6,18,0.00,4,,117
2013-11-10,64,46,28,33,26,16,85,50,15,30.32,30.24,30.14,10,10,10,18,5,20,0.00,2,,64
2013-11-11,68,48,28,28,19,10,92,52,11,30.60,30.33,30.16,10,9,4,21,8,24,0.00,2,,111
2013-11-12,54,40,25,28,26,21,92,62,32,30.73,30.63,30.47,10,6,0,15,7,17,0.00,4,Fog,195
2013-11-13,68,47,25,21,8,-2,81,44,7,30.43,30.18,29.89,10,10,10,14,7,17,0.00,3,,9
2013-11-14,57,47,36,29,24,5,70,43,16,30.04,29.92,29.81,10,10,10,26,12,31,0.00,4,,69
2013-11-15,63,44,24,27,19,9,81,47,12,29.79,29.61,29.41,10,10,10,28,9,33,0.00,3,,178
2013-11-16,59,46,33,28,18,8,64,39,14,29.46,29.37,29.28,10,10,9,40,16,55,0.00,3,,275
2013-11-17,51,41,31,19,16,11,47,35,23,30.17,29.86,29.50,10,10,10,36,14,48,0.00,1,,128
2013-11-18,56,42,27,11,9,6,57,36,14,30.27,30.15,30.06,10,10,10,13,6,,0.00,0,,75
2013-11-19,60,44,27,17,14,9,55,34,12,30.03,29.85,29.72,10,10,10,17,5,23,0.00,5,,41
2013-11-20,57,44,30,26,20,15,49,37,24,29.87,29.82,29.74,10,10,10,17,8,19,0.00,5,,64
2013-11-21,45,29,13,32,17,6,92,71,49,30.68,30.24,29.87,10,5,0,26,15,32,0.12,8,Fog-Rain-Snow,354
2013-11-22,30,25,19,24,19,9,100,78,56,30.73,30.60,30.44,10,4,1,21,6,25,0.04,8,Snow,261
2013-11-23,29,26,22,21,18,10,92,71,50,30.73,30.59,30.39,10,6,2,17,9,21,T,8,Snow,154
2013-11-24,36,28,20,31,21,17,100,91,81,30.48,30.13,29.92,9,2,0,41,9,53,0.10,8,Fog-Rain-Snow,146
2013-11-25,37,33,28,25,21,15,72,58,44,30.40,30.24,29.94,10,9,2,43,15,53,T,7,Rain-Snow,337
2013-11-26,46,35,24,21,19,16,75,53,31,30.48,30.41,30.35,10,10,10,21,8,28,0.00,2,,5
2013-11-27,55,39,22,25,18,14,74,47,20,30.33,30.21,30.11,10,10,10,12,7,14,0.00,1,,40
2013-11-28,42,32,22,25,21,17,92,66,40,30.33,30.26,30.12,10,10,10,14,7,16,0.00,3,,117
2013-11-29,59,40,20,23,17,11,92,54,15,30.25,30.18,30.12,10,8,0,21,8,29,0.00,2,Fog,352
2013-11-30,55,41,27,15,11,6,53,34,14,30.26,30.18,30.09,10,10,10,12,6,14,0.00,0,,25